Location: Erskine
(52.3216°N, 112.8806°W)
Time: 21:49:34
(UTC+00:00)

O/OREOS (USA 219) - Visible Passes

Search period start: 29 November 2023 00:00
Search period end: 09 December 2023 00:00
Orbit: 621 x 646 km, 72.0° (Epoch: 22 May)

Date Brightness Start Highest point End Pass type
(mag) Time Alt. Az. Time Alt. Az. Time Alt. Az.
04 Dec ? 14:14:45 10° N 14:16:41 12° NNE 14:18:38 10° ENE visible
05 Dec ? 14:36:07 10° N 14:39:19 19° NE 14:42:30 10° E visible
07 Dec ? 13:41:25 10° N 13:43:35 13° NNE 13:45:45 10° ENE visible
08 Dec ? 14:02:52 10° N 14:06:11 20° NE 14:09:31 10° E visible
